Regional Weather Roundup
Issued by NWS Goodland, KS

Home | Current Version | Previous Version | Text Only | Print | Product List | Glossary Off
Versions: 1 2 3 4 5 6 7 8 9 10 11 12 13 14 15 16 17 18 19 20 21 22 23 24 25 26 27 28 29 30 31 32 33 34 35 36 37 38 39 40 41 42 43 44 45 46 47 48 49 50

000
ASUS43 KGLD 250408
RWRGLD

GOODLAND FORECAST AREA HOURLY WEATHER ROUNDUP
NATIONAL WEATHER SERVICE GOODLAND KS
1000 PM MDT FRI MAR 24 2017

...OFFICIAL OBSERVATIONS...

CITY           SKY/WX    TMP DP  RH WIND       PRES   REMARKS
GOODLAND KS    CLOUDY    39  37  92 N14       30.07S
HILL CITY KS   CLOUDY    42  40  92 N17G24    30.04S
IMPERIAL NEB   MOCLDY    41  36  82 N7        30.10S
MCCOOK NEB     CLOUDY    42  40  92 N10       30.06F
AKRON CO       CLEAR     34  32  92 E8        30.09F
BURLINGTON CO  CLEAR     35  33  92 NW9       30.10S
LIMON CO       CLEAR     32  31  96 W7        30.15S
$$

...UNOFFICIAL OBSERVATIONS...

CITY           SKY/WX    TMP DP  RH WIND       PRES   REMARKS
LENORA KS        N/A     41  32  70 N12         N/A
NORTON KS      CLOUDY    39  36  87 N13       30.03
SHARON SPRINGS   N/A     39  37  91 N10G20      N/A
TRENTON NEB      N/A     42  32  68 N7          N/A
YUMA CO        FAIR      32  32 100 N3        30.11F
$$




USA.gov is the U.S. government's official web portal to all federal, state and local government web resources and services.